• Em Portugal
  • Lista de países
  • Para 7 dias
  • Temperatura da água
  • Mapas de satélite
  • Mapa do tempo
  • Widgets de tempo
  • user-avatar
    Iniciar Sessão

    Previsão horária em Tobruk

    Hoje, 24 Junho, Domingo

    Tempo Temperatura Precipitação Vento Pressão Humidade
    00:00 +26°C° 0 mm 4 m/s 757 mmHg 75%
    01:00 +26°C° 0 mm 4 m/s 757 mmHg 77%
    02:00 +26°C° 0 mm 4 m/s 757 mmHg 79%
    03:00 +26°C° 0 mm 4 m/s 757 mmHg 80%
    04:00 +25°C° 0 mm 4 m/s 757 mmHg 81%
    05:00 +25°C° 0 mm 4 m/s 757 mmHg 82%
    06:00 +26°C° 0 mm 4 m/s 757 mmHg 79%
    07:00 +26°C° 0 mm 4 m/s 757 mmHg 75%
    08:00 +27°C° 0 mm 4 m/s 757 mmHg 71%
    09:00 +28°C° 0 mm 4 m/s 757 mmHg 65%
    10:00 +29°C° 0 mm 4 m/s 757 mmHg 60%
    11:00 +30°C° 0 mm 4 m/s 757 mmHg 55%
    12:00 +30°C° 0 mm 4 m/s 757 mmHg 52%
    13:00 +32°C° 0 mm 4 m/s 757 mmHg 50%
    14:00 +32°C° 0 mm 5 m/s 757 mmHg 50%
    15:00 +32°C° 0 mm 5 m/s 757 mmHg 51%
    16:00 +32°C° 0 mm 5 m/s 757 mmHg 53%
    17:00 +30°C° 0 mm 5 m/s 757 mmHg 54%
    18:00 +29°C° 0 mm 5 m/s 757 mmHg 59%
    19:00 +29°C° 0 mm 5 m/s 757 mmHg 65%
    20:00 +28°C° 0 mm 5 m/s 757 mmHg 70%
    21:00 +27°C° 0 mm 4 m/s 757 mmHg 72%
    22:00 +27°C° 0 mm 4 m/s 757 mmHg 74%
    23:00 +27°C° 0 mm 4 m/s 757 mmHg 77%

    Amanhã, 25 Junho, Segunda-feira

    Tempo Temperatura Precipitação Vento Pressão Humidade
    00:00 +26°C° 0 mm 4 m/s 757 mmHg 78%
    01:00 +26°C° 0 mm 4 m/s 757 mmHg 79%
    02:00 +26°C° 0 mm 3 m/s 757 mmHg 80%
    03:00 +26°C° 0 mm 3 m/s 757 mmHg 81%
    04:00 +25°C° 0 mm 3 m/s 756 mmHg 82%
    05:00 +25°C° 0 mm 3 m/s 756 mmHg 83%
    06:00 +26°C° 0 mm 3 m/s 756 mmHg 80%
    07:00 +26°C° 0 mm 2 m/s 756 mmHg 77%
    08:00 +26°C° 0 mm 2 m/s 756 mmHg 74%
    09:00 +28°C° 0 mm 2 m/s 757 mmHg 67%
    10:00 +29°C° 0 mm 2 m/s 757 mmHg 60%
    11:00 +30°C° 0 mm 2 m/s 757 mmHg 53%
    12:00 +31°C° 0 mm 3 m/s 757 mmHg 49%
    13:00 +33°C° 0 mm 3 m/s 756 mmHg 46%
    14:00 +33°C° 0 mm 4 m/s 756 mmHg 43%
    15:00 +33°C° 0 mm 4 m/s 756 mmHg 44%
    16:00 +33°C° 0 mm 4 m/s 755 mmHg 46%
    17:00 +33°C° 0 mm 4 m/s 755 mmHg 47%
    18:00 +32°C° 0 mm 4 m/s 755 mmHg 50%
    19:00 +30°C° 0 mm 4 m/s 755 mmHg 53%
    20:00 +29°C° 0 mm 4 m/s 755 mmHg 55%
    21:00 +29°C° 0 mm 4 m/s 755 mmHg 56%
    22:00 +29°C° 0 mm 5 m/s 755 mmHg 56%
    23:00 +28°C° 0 mm 5 m/s 756 mmHg 57%

    Depois de amanhã, 26 Junho, Terça-feira

    Tempo Temperatura Precipitação Vento Pressão Humidade
    00:00 +28°C° 0 mm 4 m/s 755 mmHg 56%
    01:00 +28°C° 0 mm 4 m/s 755 mmHg 56%
    02:00 +28°C° 0 mm 3 m/s 754 mmHg 56%
    03:00 +28°C° 0 mm 3 m/s 754 mmHg 56%
    04:00 +28°C° 0 mm 3 m/s 753 mmHg 56%
    05:00 +27°C° 0 mm 4 m/s 753 mmHg 56%
    06:00 +29°C° 0 mm 4 m/s 753 mmHg 50%
    07:00 +30°C° 0 mm 5 m/s 753 mmHg 43%
    08:00 +32°C° 0 mm 5 m/s 753 mmHg 37%
    09:00 +34°C° 0 mm 5 m/s 753 mmHg 32%
    10:00 +36°C° 0 mm 6 m/s 753 mmHg 28%
    11:00 +39°C° 0 mm 6 m/s 753 mmHg 23%
    12:00 +40°C° 0 mm 6 m/s 752 mmHg 22%
    13:00 +41°C° 0 mm 7 m/s 751 mmHg 20%
    14:00 +43°C° 0 mm 7 m/s 751 mmHg 19%
    15:00 +40°C° 0 mm 7 m/s 751 mmHg 27%
    16:00 +38°C° 0 mm 8 m/s 750 mmHg 35%
    17:00 +35°C° 0 mm 8 m/s 750 mmHg 43%
    18:00 +33°C° 0 mm 9 m/s 751 mmHg 51%
    19:00 +31°C° 0 mm 9 m/s 751 mmHg 59%
    20:00 +28°C° 0 mm 10 m/s 752 mmHg 67%
    21:00 +28°C° 0 mm 9 m/s 752 mmHg 69%
    22:00 +27°C° 0 mm 9 m/s 753 mmHg 70%
    23:00 +27°C° 0 mm 8 m/s 753 mmHg 71%

    27 Junho, Quarta-feira

    Tempo Temperatura Precipitação Vento Pressão Humidade
    00:00 +26°C° 0 mm 8 m/s 753 mmHg 72%
    01:00 +26°C° 0 mm 8 m/s 753 mmHg 72%
    02:00 +26°C° 0 mm 8 m/s 753 mmHg 73%
    03:00 +26°C° 0 mm 7 m/s 753 mmHg 73%
    04:00 +24°C° 0 mm 7 m/s 753 mmHg 73%
    05:00 +24°C° 0 mm 7 m/s 753 mmHg 74%
    06:00 +26°C° 0 mm 6 m/s 754 mmHg 70%
    07:00 +26°C° 0 mm 6 m/s 754 mmHg 67%
    08:00 +26°C° 0 mm 6 m/s 754 mmHg 63%
    09:00 +27°C° 0 mm 6 m/s 754 mmHg 57%
    10:00 +28°C° 0 mm 6 m/s 754 mmHg 51%
    11:00 +29°C° 0 mm 5 m/s 755 mmHg 46%
    12:00 +30°C° 0 mm 5 m/s 754 mmHg 43%
    13:00 +32°C° 0 mm 5 m/s 754 mmHg 40%
    14:00 +33°C° 0 mm 5 m/s 754 mmHg 37%
    15:00 +32°C° 0 mm 6 m/s 754 mmHg 41%
    16:00 +32°C° 0 mm 6 m/s 754 mmHg 44%
    17:00 +30°C° 0 mm 7 m/s 754 mmHg 47%
    18:00 +29°C° 0 mm 7 m/s 754 mmHg 52%
    19:00 +28°C° 0 mm 6 m/s 754 mmHg 56%
    20:00 +27°C° 0 mm 6 m/s 755 mmHg 60%
    21:00 +27°C° 0 mm 6 m/s 755 mmHg 61%
    22:00 +27°C° 0 mm 5 m/s 755 mmHg 62%
    23:00 +27°C° 0 mm 5 m/s 755 mmHg 62%

    28 Junho, Quinta-feira

    Tempo Temperatura Precipitação Vento Pressão Humidade
    00:00 +27°C° 0 mm 5 m/s 755 mmHg 62%
    01:00 +27°C° 0 mm 4 m/s 755 mmHg 62%
    02:00 +27°C° 0 mm 4 m/s 755 mmHg 62%
    03:00 +26°C° 0 mm 4 m/s 755 mmHg 62%
    04:00 +26°C° 0 mm 3 m/s 755 mmHg 63%
    05:00 +26°C° 0 mm 3 m/s 755 mmHg 63%
    06:00 +26°C° 0 mm 3 m/s 755 mmHg 60%
    07:00 +27°C° 0 mm 4 m/s 756 mmHg 57%
    08:00 +27°C° 0 mm 4 m/s 756 mmHg 54%
    09:00 +28°C° 0 mm 4 m/s 756 mmHg 51%
    10:00 +29°C° 0 mm 4 m/s 756 mmHg 47%
    11:00 +30°C° 0 mm 5 m/s 756 mmHg 43%
    12:00 +32°C° 0 mm 5 m/s 756 mmHg 43%
    13:00 +32°C° 0 mm 5 m/s 756 mmHg 43%
    14:00 +33°C° 0 mm 6 m/s 756 mmHg 43%
    15:00 +32°C° 0 mm 6 m/s 756 mmHg 46%
    16:00 +32°C° 0 mm 7 m/s 756 mmHg 49%
    17:00 +32°C° 0 mm 7 m/s 756 mmHg 52%
    18:00 +30°C° 0 mm 7 m/s 756 mmHg 56%
    19:00 +29°C° 0 mm 6 m/s 756 mmHg 61%
    20:00 +28°C° 0 mm 6 m/s 757 mmHg 66%
    21:00 +27°C° 0 mm 6 m/s 757 mmHg 67%
    22:00 +27°C° 0 mm 6 m/s 757 mmHg 69%
    23:00 +27°C° 0 mm 5 m/s 757 mmHg 70%

    29 Junho, Sexta-feira

    Tempo Temperatura Precipitação Vento Pressão Humidade
    00:00 +27°C° 0 mm 5 m/s 757 mmHg 71%
    01:00 +26°C° 0 mm 5 m/s 757 mmHg 72%
    02:00 +26°C° 0 mm 5 m/s 757 mmHg 74%
    03:00 +26°C° 0 mm 5 m/s 757 mmHg 75%
    04:00 +26°C° 0 mm 4 m/s 757 mmHg 76%
    05:00 +26°C° 0 mm 4 m/s 756 mmHg 77%
    06:00 +26°C° 0 mm 4 m/s 757 mmHg 74%
    07:00 +27°C° 0 mm 3 m/s 757 mmHg 70%
    08:00 +27°C° 0 mm 3 m/s 757 mmHg 67%
    09:00 +28°C° 0 mm 3 m/s 757 mmHg 61%
    10:00 +29°C° 0 mm 3 m/s 757 mmHg 55%
    11:00 +30°C° 0 mm 3 m/s 757 mmHg 50%
    12:00 +31°C° 0 mm 3 m/s 757 mmHg 47%
    13:00 +32°C° 0 mm 4 m/s 756 mmHg 44%
    14:00 +33°C° 0 mm 4 m/s 756 mmHg 42%
    15:00 +33°C° 0 mm 5 m/s 756 mmHg 44%
    16:00 +32°C° 0 mm 5 m/s 756 mmHg 46%
    17:00 +32°C° 0 mm 6 m/s 755 mmHg 48%
    18:00 +30°C° 0 mm 5 m/s 756 mmHg 52%
    19:00 +29°C° 0 mm 5 m/s 756 mmHg 57%
    20:00 +28°C° 0 mm 5 m/s 756 mmHg 61%
    21:00 +28°C° 0 mm 4 m/s 756 mmHg 64%
    22:00 +27°C° 0 mm 4 m/s 756 mmHg 66%
    23:00 +27°C° 0 mm 3 m/s 756 mmHg 69%
    Mostrar mais